Location: *
(50.5492°N, 7.7469°E)
Time: 12:00:22
(UTC+00:00)

Cosmos 1937 Rocket - Pass Details

Date: 21 October 2019
Orbit: 747 x 780 km, 74.0° (Epoch: 21 November)

Event Time Altitude Azimuth Distance (km) Brightness Sun altitude
Rises 17:49:50 0° 339° (NNW) 3,209 7.0 -14.0°
Reaches altitude 10° 17:52:24 10° 349° (N) 2,279 6.1 -14.4°
Maximum altitude 17:57:06 34° 55° (NE) 1,212 4.1 -15.2°
Enters shadow 17:59:13 25° 98° (E) 1,489 4.4 -15.5°
